Regional Weather Roundup
Issued by NWS

Home | Current Version | Previous Version | Graphics & Text | Print | Product List | Glossary On
Versions: 1 2 3 4 5 6 7 8 9 10 11 12 13 14 15 16 17 18 19 20 21 22 23 24 25 26 27 28 29 30 31 32 33 34 35 36 37 38 39 40 41 42 43 44 45 46 47 48 49 50
000
ASUS45 KABQ 210101
RWRNM
NEW MEXICO REGIONAL WEATHER ROUNDUP
NATIONAL WEATHER SERVICE ALBUQUERQUE NM
700 PM MDT SUN MAY 20 2018

NOTE: "FAIR" MEANS FEW OR NO CLOUDS BELOW 12,000 FEET AGL WITH NO
       SIGNIFICANT WEATHER OR OBSTRUCTIONS TO VISION.

      THIS PRODUCT IS RELEASED AS TWO VERSIONS.  ONE VERSION NEAR
      THE TOP OF THE HOUR CONTAINING PRELIMINARY DATA FROM ALBUQUERQUE
      AND OTHER STATIONS.  A FINAL VERSION WITH ADDITIONAL DATA IS
      ISSUED ABOUT 10 MINUTES AFTER THE HOUR.

NMZ501-503-504-510>518-210200-
NORTHWEST PLATEAU/NORTHCENTRAL MOUNTAINS

CITY           SKY/WX    TMP DP  RH WIND       PRES   REMARKS
FARMINGTON     FAIR      79  11   7 SW10      29.90F
LOS ALAMOS     FAIR      70  20  15 SW9       30.12F
SANTA FE       FAIR      73  32  22 SE16      30.06S
TAOS           PTSUNNY   70  23  17 SW13      30.14R
ANGEL FIRE     PTSUNNY   59  34  38 SE9       30.22R

$$
NMZ402-403-502-505>509-210200-
WESTCENTRAL MOUNTAINS/SOUTHWEST MOUNTAINS

CITY           SKY/WX    TMP DP  RH WIND       PRES   REMARKS
GALLUP         FAIR      77   4   6 W18       29.99S
GRANTS         FAIR      78   3   5 SW14      30.01R
SILVER CITY    FAIR      80   8   6 S7        29.99F

$$
NMZ407-409-411-412-210200-
SOUTHERN DESERTS

CITY           SKY/WX    TMP DP  RH WIND       PRES   REMARKS
DEMING         FAIR      86  25  11 S8        29.92S
LAS CRUCES     FAIR      85  33  15 SE10      29.95S
HOLLOMAN AFB   FAIR      85  40  20 S15G23    29.95S
ALAMOGORDO     FAIR      82  37  20 S17G24    29.95R
T OR C         FAIR      84  25  11 S16G23    29.94S

$$
NMZ519>523-210200-
CENTRAL VALLEYS/CENTRAL HIGHLANDS

CITY           SKY/WX    TMP DP  RH WIND       PRES   REMARKS
ALBUQUERQUE    FAIR      82  20  10 S16G28    29.97S
DOUBLE EAGLE   MOSUNNY   79  25  13 SE14G20   30.00F
MORIARTY ARPT  FAIR      72  39  29 SE22      30.10S
CLINES CORNERS FAIR      64  39  39 SE15G28   30.16S
BELEN          FAIR      82  22  11 S23       29.96R
SOCORRO        FAIR      83  23  11 S15G21    29.95S

$$
NMZ524>526-539-540-210200-
SOUTHCENTRAL MOUNTAINS

CITY           SKY/WX    TMP DP  RH WIND       PRES   REMARKS
RUIDOSO        NOT AVBL

$$
NMZ527>531-210200-
NORTHEAST HIGHLANDS/NORTHEAST PLAINS

CITY           SKY/WX    TMP DP  RH WIND       PRES   REMARKS
LAS VEGAS      FAIR      64  41  42 SE25G32   30.14S
RATON          FAIR      64  43  46 S20       30.13S
CLAYTON        FAIR      63  47  55 S6        30.13R

$$
NMZ532>537-210200-
EASTCENTRAL PLAINS

CITY           SKY/WX    TMP DP  RH WIND       PRES   REMARKS
SANTA ROSA     FAIR      71  45  38 SE13      30.07R
TUCUMCARI      FAIR      74  49  41 E17       30.04S
CANNON AFB     FAIR      69  52  53 E12       30.09F
CLOVIS AIRPORT FAIR      68  52  56 SE12      30.10S

$$
NMZ028-029-538-210200-
SOUTHEAST PLAINS

CITY           SKY/WX    TMP DP  RH WIND       PRES   REMARKS
ROSWELL        FAIR      81  51  35 S13       29.98R
ARTESIA        FAIR      81  54  39 SE14      29.98S
CARLSBAD       FAIR      82  54  37 SE5       29.95F
HOBBS          FAIR      73  54  49 E13G20    30.04S


$$




USA.gov is the U.S. government's official web portal to all federal, state and local government web resources and services.